Regional Weather Roundup
Issued by NWS

Home | Current Version | Previous Version | Graphics & Text | Print | Product List | Glossary Off
Versions: 1 2 3 4 5 6 7 8 9 10 11 12 13 14 15 16 17 18 19 20 21 22 23 24 25 26 27 28 29 30 31 32 33 34 35 36 37 38 39 40 41 42 43 44 45 46 47 48 49 50

000
ASUS43 KDTX 050210
RWRMI
MICHIGAN HOURLY REGIONAL WEATHER ROUNDUP
NATIONAL WEATHER SERVICE DETROIT/PONTIAC MI
1000 PM EDT FRI SEP 04 2015

NOTE: "FAIR" INDICATES FEW OR NO CLOUDS BELOW 12,000 FEET WITH NO
SIGNIFICANT WEATHER AND/OR OBSTRUCTION TO VISIBILITY.

MIZ047>049-052>055-059>063-066>070-074>076-081>083-050300-
SOUTHEAST LOWER MICHIGAN

CITY           SKY/WX    TMP DP  RH WIND       PRES   REMARKS
ADRIAN         CLOUDY    73  70  90 CALM      30.07R
ALMA           CLOUDY    71  70  98 CALM      30.07R
ANN ARBOR      MOCLDY    73  70  90 E3        30.07R
BAD AXE        CLOUDY    71  69  93 CALM      30.08R
DETROIT CITY   PTCLDY    73  67  81 E3        30.07R
DETROIT        CLOUDY    74  69  85 CALM      30.07R
FLINT          CLOUDY    76  69  79 E5        30.07R
GROSSE ILE     MOCLDY    72  70  94 CALM      30.05S
HILLSDALE      MOCLDY    71  71 100 CALM      30.08R
HOWELL         MOCLDY    71  68  92 CALM      30.07R

CITY           SKY/WX    TMP DP  RH WIND       PRES   REMARKS
JACKSON        MOCLDY    69  67  93 E3        30.07R
LAMBERTVILLE   CLOUDY    73  67  82 SW3       30.08R
LANSING        MOCLDY    69  67  93 CALM      30.07R
LAPEER         NOT AVBL
MASON          MOCLDY    69  66  90 CALM      30.07R FOG
MONROE         MOCLDY    72  68  89 CALM      30.05S
MT. CLEMENS    MOCLDY    72  68  88 E1        30.06R
PONTIAC        MOCLDY    74  69  85 SE6       30.07R
PORT HOPE        N/A     73  70  90 SE15      30.06S
PORT HURON     CLEAR     68  66  94 CALM      30.09R
TRI CITIES     MOCLDY    70  67  90 N5        30.06R FOG
YPSILANTI      MOCLDY    74  69  85 CALM      30.07R
$$
MIZ043>046-050>051-056>058-064>065-071>073-077>080-050300-
SOUTHWEST LOWER MICHIGAN

CITY           SKY/WX    TMP DP  RH WIND       PRES   REMARKS
BATTLE CREEK   MOCLDY    71  68  90 CALM      30.07R
BENTON HARBOR  PTCLDY    67  65  93 CALM      30.05R
BIG RAPIDS     MOCLDY    67  66  97 CALM      30.07R
COLDWATER      MOCLDY    72  71  96 SE3       30.07R
HOLLAND        PTCLDY    69  65  86 CALM      30.06R
GRAND RAPIDS   CLOUDY    73  68  84 CALM      30.06R
KALAMAZOO      PTCLDY    72  65  78 CALM      30.06R
MARSHALL       MOCLDY    69  67  96 CALM      30.06R
MUSKEGON       MOCLDY    69  66  90 CALM      30.05S
$$
MIZ016>042-050300-
NORTHERN LOWER MICHIGAN

CITY           SKY/WX    TMP DP  RH WIND       PRES   REMARKS
ALPENA         MOCLDY    73  64  73 E9        30.09S
BEAVER ISLAND  CLEAR     67  66  96 NE5       30.08R FOG
BELLAIRE       CLOUDY    68  66  94 CALM      30.06S FOG
CADILLAC         N/A     66  66  98 CALM      30.08R FOG
CHARLEVOIX     PTCLDY    72  69  93 E7        30.08S
FRANKFORT        N/A     67  66  96 CALM      30.06R FOG
GAYLORD        MOCLDY    69  69 100 E3        30.10S FOG
GRAYLING       CLOUDY    68  66  95 E3        30.10R
HARBOR SPRINGS CLOUDY    70  67  92 NE6       30.07F
HOUGHTON LAKE  CLOUDY    68  67  96 E7        30.09R
MANISTEE       PTCLDY    68  64  88 W3        30.06R
OSCODA         MOCLDY    71  67  89 E5        30.07R
PELLSTON       PTCLDY    70  67  90 E5        30.09R
TRAVERSE CITY  CLOUDY    73  69  87 N3        30.05R
$$
MIZ007>008-015-050300-
EASTERN UPPER MICHIGAN

CITY           SKY/WX    TMP DP  RH WIND       PRES   REMARKS
KINROSS        PTCLDY    72  66  83 E8        30.11S
MACKINAC ISLAN MOCLDY    66  64  94 E9        30.10R
NEWBERRY       MOCLDY    70  66  89 SE6       30.10S
S. S. MARIE    CLEAR     71  64  78 SE7       30.10S
$$
MIZ004>006-011>014-085-050300-
CENTRAL UPPER MICHIGAN

CITY           SKY/WX    TMP DP  RH WIND       PRES   REMARKS
MANISTIQUE     PTCLDY    68  65  90 E5        30.07S
ESCANABA       CLEAR     66  64  94 CALM      30.06S
MENOMINEE      CLEAR     64  61  88 NE3       30.06S
SAWYER-GWINN   CLEAR     70  64  83 S3        30.10R
$$
MIZ001>003-009>011-084-050300-
WESTERN UPPER MICHIGAN

CITY           SKY/WX    TMP DP  RH WIND       PRES   REMARKS
IRON MOUNTAIN  CLEAR     69  64  84 SE5       30.08R
HOUGHTON       CLEAR     64  59  83 E10       30.05S
COPPER HARBOR    N/A     67  61  81 S8        30.04F
IRONWOOD       CLEAR     72  66  83 E6        29.99S
$$

ABBREVIATIONS USED IN REMARKS
   TC - TEMPERATURE IN CELSIUS
  WCI - WIND CHILL INDEX
   HX - HEAT INDEX
  VSB - VISIBILITY



USA.gov is the U.S. government's official web portal to all federal, state and local government web resources and services.